This demonstration page uses our WeatherBlox Daily Observations layout. Learn more.

Left ArrowRight Arrow

36.17497, -115.13722

Hourly Observations for September 19, 2015

Temp ( °F °C ) Dew Point ( °F °C ) Humidity (%) Winds ( mph kmh ) Pressure ( in mb ) Visibility ( mi km ) Precip ( " mm )
12:53 am 00:53 Clear 75 23.9 33 0.6 22 22 N N/A 29.87 1012 10 16 N/A
1:53 am 01:53 Clear 74 23.3 34 1.1 23 23 WNW 5 7 29.86 1011 10 16 N/A
2:53 am 02:53 Clear 71 21.7 34 1.1 26 26 N N/A 29.88 1012 10 16 N/A
3:53 am 03:53 Clear 70 21.1 33 0.6 26 26 N 6 9 29.87 1012 10 16 N/A
4:53 am 04:53 Clear 72 22.2 29 -1.7 20 20 NNW 8 13 29.88 1012 10 16 N/A
5:53 am 05:53 Clear 69 20.6 37 2.8 31 31 N N/A 29.89 1012 10 16 N/A
6:53 am 06:53 Sunny 69 20.6 35 1.7 29 29 N N/A 29.91 1013 10 16 N/A
7:53 am 07:53 Sunny 73 22.8 36 2.2 26 26 WNW 5 7 29.93 1013 10 16 N/A
8:53 am 08:53 Sunny 79 26.1 33 0.6 19 19 WNW 3 6 29.94 1014 10 16 N/A
9:53 am 09:53 Sunny 82 27.8 32 undefined 16 16 NNW 3 6 29.94 1014 10 16 N/A
10:53 am 10:53 Sunny 85 29.4 33 0.6 15 15 SSE 6 9 29.94 1014 10 16 N/A
11:53 am 11:53 Sunny 87 30.6 33 0.6 14 14 SSE 5 7 29.92 1013 10 16 N/A
12:53 pm 12:53 Sunny 91 32.8 33 0.6 13 13 VRB 5 7 29.89 1012 10 16 N/A
1:53 pm 13:53 Sunny 91 32.8 31 -0.6 12 12 VRB 3 6 29.87 1011 10 16 N/A
2:53 pm 14:53 Sunny 93 33.9 31 -0.6 11 11 S 7 11 29.84 1011 10 16 N/A
3:53 pm 15:53 Sunny 92 33.3 31 -0.6 11 11 VRB 3 6 29.83 1010 10 16 N/A
4:53 pm 16:53 Sunny 93 33.9 30 -1.1 10 10 W 6 9 29.81 1010 10 16 N/A
5:53 pm 17:53 Sunny 93 33.9 30 -1.1 10 10 N N/A 29.82 1010 10 16 N/A
6:53 pm 18:53 Clear 92 33.3 30 -1.1 11 11 SW 3 6 29.82 1010 10 16 N/A
7:53 pm 19:53 Clear 89 31.7 33 0.6 14 14 N N/A 29.83 1010 10 16 N/A
8:53 pm 20:53 Clear 85 29.4 36 2.2 17 17 W 6 9 29.85 1011 10 16 N/A
9:53 pm 21:53 Clear 80 26.7 36 2.2 20 20 NNW 9 15 29.86 1011 10 16 N/A
10:53 pm 22:53 Clear 80 26.7 34 1.1 19 19 NW 6 9 29.86 1011 10 16 N/A
11:53 pm 23:53 Clear 78 25.6 32 undefined 19 19 NW 7 11 29.87 1012 10 16 N/A

Powered by AerisWeather